#timestamp,LO_Frequency,Hit,StdDev 
1540616415.5,286047001.0,N
1540616435.3,286047000.6,N
1540616455.1,286047000.3,N
1540616475.9,286047000.6,N
1540616495.7,286046999.0,N
1540616515.5,286046997.4,N
1540616535.4,286046997.5,N
1540616555.2,286046995.2,Y
1540616575.1,286047000.9,P
1540616576.0,286047000.9,N
1540616595.8,286047000.2,N
1540616615.6,286047000.2,N
1540616635.5,286046999.9,N
1540616655.3,286047004.3,Y
1540616675.2,286047006.0,P
1540616695.9,286047003.9,N
1540616715.7,286047000.4,N
1540616735.6,286047001.0,N
1540616755.4,286047000.2,N
1540616775.2,286046998.7,N
1540616795.1,286046999.9,N
1540616796.0,286046999.9,N
1540616815.8,286046998.8,N
1540616835.7,286046999.0,N
1540616855.5,286046999.0,N
1540616875.3,286047000.6,N
1540616895.2,286046999.0,N
1540616915.0,286046998.4,N
1540616915.9,286046998.4,N
1540616935.7,286047000.7,N
1540616955.6,286046998.9,N
1540616975.4,286046998.1,N
1540616995.3,286046998.1,N
1540617015.1,286047000.3,N
1540617016.0,286047000.3,N
1540617035.8,286046998.3,N
1540617055.7,286046999.1,N
1540617075.5,286046996.6,N
1540617095.4,286046999.2,N
1540617115.2,286047001.2,N
1540617135.0,286046998.2,N
1540617135.9,286046998.2,N
1540617155.8,286047000.7,N
1540617175.6,286047002.4,N
1540617195.4,286047002.8,N
1540617215.3,286046999.9,N
1540617235.1,286047002.8,N
1540617255.9,286047000.4,N
1540617275.7,286047000.1,N
1540617295.5,286047003.7,N
1540617315.4,286047003.2,N
1540617335.2,286047002.3,N
1540617355.0,286047000.8,N
1540617355.9,286047000.8,N
1540617375.8,286047001.1,N
1540617395.6,286047000.6,N
1540617415.5,286046999.8,N
1540617435.3,286047001.0,N
1540617455.1,286047002.1,N
1540617475.9,286047004.2,N
1540617495.7,286047003.7,N
1540617515.5,286047003.4,N
1540617535.4,286047006.0,Y
1540617555.2,286047001.9,P
1540617575.1,286046999.7,N
1540617576.0,286046999.7,N
1540617595.8,286047002.3,N
1540617615.6,286047002.4,N
1540617635.5,286047002.2,N
1540617655.3,286047000.1,N
1540617675.2,286047002.1,N
1540617695.9,286047002.5,N
1540617715.7,286046999.8,N
1540617735.6,286047002.8,N
1540617755.4,286046999.8,N
1540617775.2,286047002.4,N
1540617795.1,286047001.6,N
1540617796.0,286047001.6,N
1540617815.8,286047001.1,N
1540617835.7,286047002.4,N
1540617855.5,286047000.6,N
1540617875.3,286046999.2,N
1540617895.2,286046998.4,N
1540617915.0,286046999.5,N
1540617915.9,286046999.5,N
1540617935.8,286046998.2,N
1540617955.6,286047002.7,N
1540617975.4,286047000.5,N
1540617995.3,286046999.9,N
1540618015.1,286047001.1,N
1540618035.8,286047001.5,N
1540618055.7,286047001.7,N
1540618075.5,286046999.8,N
1540618095.4,286047001.9,N
1540618115.2,286047004.1,Y
1540618135.0,286047001.3,P
1540618135.9,286047001.3,P
1540618155.8,286047002.8,P
1540618175.6,286046998.2,N
1540618195.5,286047000.9,N
1540618215.3,286046998.6,N
1540618235.1,286047000.0,N
1540618255.9,286047000.6,N
1540618275.7,286046999.6,N
1540618295.5,286047000.2,N
1540618315.4,286047000.7,N
1540618335.2,286046998.9,N
1540618355.1,286046998.4,N
1540618356.0,286046998.4,N
1540618375.8,286046998.6,N
1540618395.6,286046999.3,N
1540618415.5,286046999.5,N
1540618435.3,286046999.4,N
1540618455.1,286046999.1,N
1540618475.9,286047001.0,N
1540618495.7,286047000.5,N
1540618515.6,286047001.1,N
1540618535.4,286047001.1,N
1540618555.2,286046998.4,N
1540618575.1,286046996.7,N
1540618576.0,286046996.7,N
1540618595.8,286046996.9,N
1540618615.7,286046996.6,N
1540618635.5,286046999.4,N
1540618655.3,286046996.7,N
1540618675.2,286046999.0,N
1540618695.0,286046999.6,N
1540618695.9,286046999.6,N
1540618715.7,286046998.0,N
1540618735.6,286046993.5,Y
1540618755.4,286046995.2,P
1540618775.3,286046996.1,N
1540618795.1,286046994.2,P
1540618815.8,286046993.8,Y
1540618835.7,286046996.6,P
1540618855.5,286046997.7,P
1540618875.4,286046997.1,P
1540618895.2,286046996.8,Y
1540618915.0,286047000.1,P
1540618915.9,286047000.1,N
1540618935.8,286047004.4,N
1540618955.6,286047001.7,N
1540618975.5,286047002.0,N
1540618995.3,286047002.3,N
1540619015.1,286047002.4,N
1540619035.9,286047000.9,N
1540619055.7,286046998.4,N
1540619075.5,286047002.5,N
1540619125.4,286047000.7,E
1540619135.3,286047001.1,N
1540619155.2,286047001.6,P
1540619175.0,286047001.8,P
1540619175.9,286047001.8,Y
1540619195.8,286047002.7,P
1540619215.6,286047001.6,N
1540619235.4,286047000.3,N
1540619255.3,286047000.5,N
1540619275.1,286047002.6,N
1540619295.8,286047002.0,N
1540619315.7,286047002.5,N
1540619335.5,286047001.6,N
1540619355.4,286046999.9,N
1540619375.2,286047000.4,N
1540619395.0,286047001.1,N
1540619395.9,286047001.1,N
1540619415.8,286046999.9,N
1540619435.6,286047002.0,N
1540619455.4,286047002.4,N
1540619475.3,286047002.6,N
1540619495.1,286047004.0,Y
1540619515.9,286047002.4,P
1540619535.7,286047000.2,N
1540619555.5,286047001.2,N
1540619575.4,286047001.0,N
1540619595.2,286047002.5,Y
1540619615.0,286046998.3,P
1540619616.0,286046998.3,N
1540619635.8,286046998.1,N
1540619655.6,286047000.4,N
1540619675.5,286047000.5,N
1540619695.3,286047000.6,N
1540619715.1,286046998.2,N
1540619735.9,286046999.6,N
1540619755.7,286047001.0,N
1540619775.6,286047000.7,N
1540619795.4,286046998.7,N
1540619815.2,286046996.5,N
1540619835.1,286046997.2,N
1540619836.0,286046997.2,N
1540619855.8,286046999.3,N
1540619875.6,286046999.6,N
1540619895.5,286046998.2,N
1540619915.3,286046998.6,N
1540619935.2,286046999.3,N
1540619955.9,286046998.7,N
1540619975.7,286046998.5,N
1540619995.6,286047000.3,N
